Terminal Aerodrome Forecast
Issued by NWS Memphis, TN

Home | Current Version | Previous Version | Text Only | Print | Product List | Glossary On
Versions: 1 2 3 4 5 6 7 8 9 10 11 12 13 14 15 16 17 18 19 20 21 22 23 24 25
000
FTUS44 KMEG 012300
TAFMEM
TAF
KMEM 012330Z 0200/0224 05006KT P6SM VCSH FEW060 SCT200
     FM020400 04004KT P6SM BKN100
     FM021800 05007KT P6SM SCT050=

USA.gov is the U.S. government's official web portal to all federal, state and local government web resources and services.